Regional Weather Roundup
Issued by NWS

Home | Current Version | Previous Version | Text Only | Print | Product List | Glossary Off
Versions: 1 2 3 4 5 6 7 8 9 10 11 12 13 14 15 16 17 18 19 20 21 22 23 24 25 26 27 28 29 30 31 32 33 34 35 36 37 38 39 40 41 42 43 44 45 46 47 48 49 50

000
ASUS43 KMKX 310821
RWRWI

WISCONSIN REGIONAL WEATHER ROUNDUP
NATIONAL WEATHER SERVICE MILWAUKEE/SULLIVAN WI
300 AM CDT TUE MAY 31 2016

NOTE: "FAIR" INDICATES FEW OR NO CLOUDS BELOW 12,000 FEET WITH NO
SIGNIFICANT WEATHER AND/OR OBSTRUCTIONS TO VISIBILITY.

WIZ001-002-006>008-014>016-023>028-310900-
NORTHWEST WISCONSIN

CITY           SKY/WX    TMP DP  RH WIND       PRES   REMARKS
SUPERIOR ARPT  CLOUDY    45  42  91 NE15G25   30.01S
ASHLAND        PTCLDY    48  43  82 NE10      30.01S
HAYWARD        CLOUDY    61  50  67 E7        29.96S
SIREN          LGT RAIN  63  55  75 E3        29.91S
CUMBERLAND     CLOUDY    63  54  72 S5        29.94R
RICE LAKE      CLOUDY    67  53  59 SE9       29.95R
CHETEK         CLOUDY    66  56  68 S13       29.95R
LADYSMITH      MOCLDY    64  53  69 SE6       29.98S
EAU CLAIRE     LGT RAIN  64  59  83 SE7       29.95S
MENOMONIE      CLOUDY    65  57  73 E8        29.93F
NEW RICHMOND   PTCLDY    65  54  66 SE6       29.90S
OSCEOLA        CLOUDY    66  55  68 SE8       29.91S
$$

WIZ003>005-009-010-017-018-310900-
NORTH CENTRAL WISCONSIN

CITY           SKY/WX    TMP DP  RH WIND       PRES   REMARKS
MANITOWISH WTR NOT AVBL
ARBOR VITAE    CLOUDY    57  49  76 E3        30.02S
WOODRUFF       CLOUDY    57  49  76 E3        30.02S
RHINELANDER    CLOUDY    56  48  74 E7        30.03R
EAGLE RIVER      N/A     54  47  77 E5        30.03S
LAND O LAKES   CLOUDY    53  47  82 E5        30.06S
PHILLIPS       CLOUDY    58  50  76 CALM      29.99S
TOMAHAWK       CLOUDY    55  53  91 E3        30.02R
MEDFORD        CLOUDY    62  53  70 S9        30.00R
MERRILL        CLOUDY    58  54  87 E5        30.01R
$$

WIZ029-030-035-036-043>047-310900-
CENTRAL WISCONSIN

CITY           SKY/WX    TMP DP  RH WIND       PRES   REMARKS
WAUSAU         CLOUDY    60  55  83 E6        29.98S
MOSINEE        CLOUDY    57  54  88 S6        30.02R
MARSHFIELD     CLOUDY    63  53  70 SW8       29.99S
STEVENS POINT  CLOUDY    60  54  80 SW6       30.01R
WAUPACA        CLOUDY    60  60  99 CALM      30.00R
WAUTOMA        LGT RAIN N/A N/A N/A SW5       30.02R
WISC RAPIDS    CLOUDY    65  52  62 W5        30.02R
CAMP DOUGLAS   LGT RAIN  61  61 100 NW1       30.01S
$$

WIZ011>013-019>022-031-037>040-048>050-310900-
NORTHEAST WISCONSIN

CITY           SKY/WX    TMP DP  RH WIND       PRES   REMARKS
ANTIGO         CLOUDY    55  49  80 CALM      30.05R
SHAWANO        PTCLDY    62  52  70 E10       30.04R
OCONTO         MOCLDY    56  52  86 E6        30.04R
STURGEON BAY   NOT AVBL
GREEN BAY      CLOUDY    60  55  83 NE16      30.02R
MANITOWOC      MOCLDY    60  54  80 CALM      30.00S
APPLETON       CLOUDY    63  54  72 CALM      29.98S
CLINTONVILLE   PTCLDY    59  52  77 NE8       30.02R
OSHKOSH        MOCLDY    60  56  86 S5        29.98S
$$

WIZ032>034-041-042-053>061-310900-
SOUTHWEST WISCONSIN

CITY           SKY/WX    TMP DP  RH WIND       PRES   REMARKS
LA CROSSE      PTCLDY    65  60  84 E7        29.91F
SPARTA         MOCLDY    61  61  99 E6        29.96F
VIROQUA        PTCLDY    62  60  93 E12       29.98R
BOSCOBEL       NOT AVBL
PRAIRIE DU CHI MOCLDY    61  60  96 E7        29.96S
PLATTEVILLE    CLOUDY    64  62  94 NE5       29.97F
$$

WIZ056-057-062-063-064-067-068-310900-
SOUTH CENTRAL WISCONSIN

CITY           SKY/WX    TMP DP  RH WIND       PRES   REMARKS
REEDSBURG      CLOUDY    65  55  70 CALM      30.00S
BARABOO/DELLS  CLOUDY    66  54  66 CALM      30.01F
LONE ROCK      LGT RAIN  65  60  84 E6        30.00S
MINERAL POINT  LGT RAIN  64  57  77 N8        29.98F
MADISON        LGT RAIN  67  58  72 CALM      30.00R
MIDDLETON      CLOUDY    67  57  71 CALM      30.02S
WATERTOWN      PTCLDY    62  57  84 SE3       29.98F
MONROE         CLOUDY    66  57  72 CALM      29.99S
JANESVILLE     MOCLDY    64  55  72 CALM      29.98S
$$

WIZ051-052-058>065-066-070>072-310900-
SOUTHEAST WISCONSIN

CITY           SKY/WX    TMP DP  RH WIND       PRES   REMARKS
MILWAUKEE      CLOUDY    62  56  80 E3        30.00S
WAUKESHA       MOCLDY    61  54  77 SE5       30.01S
MILWAUKEE/TIMM MOCLDY    61  54  77 CALM      30.01S
RACINE         CLOUDY    63  55  75 CALM      30.02R
BURLINGTON     CLOUDY    60  58  92 CALM      29.99F
KENOSHA        PTCLDY    61  56  83 CALM      30.00S
FOND DU LAC    PTCLDY    62  57  83 CALM      29.99S
SHEBOYGAN      PTCLDY    58  55  90 SW3       29.99F
WEST BEND      PTCLDY    55  54  94 CALM      30.01R FOG
JUNEAU         CLOUDY    63  56  78 SE6       30.00F
$$

LSZ147-162-310900-
LAKE SUPERIOR

STATION/POSITION TIME  TEMP    WIND        PRES    WAVE
                       AIR SEA DIR/SP/G            HT/PER
                 (UTC) (F)     (DEG/KT/KT) (MB)    (FT/S)
W MID LAKE BUOY  0750   41 38   70/ 16/ 17 1018.6F   2/ 4
DEVILS ISLAND    0800   45      70/ 21/ 24 1017.9S
SAXON HARBOR     0700   53      60/  9/ 11 1015.2F
$$

LMZ867-665-643>646-310900-
LAKE MICHIGAN

STATION/POSITION TIME  TEMP    WIND        PRES    WAVE
                       AIR SEA DIR/SP/G            HT/PER
                 (UTC) (F)     (DEG/KT/KT) (MB)    (FT/S)
CHAMBERS ISLAND  0740   55      10/ 19/ 20 1017.3R
N MID LAKE BUOY  0750   51 49   10/ 16/ 17 1016.8R   2/ 3
NORTHPORT PIER   0700   55     360/  8/ 12 1016.9R
KEWAUNEE LAKESHO 0800   54      10/ 15/ 22 1016.1R
SHEBOYGAN LAKESH 0800   64     230/  6/  6 1015.8F
PORT WASHINGTON  0700   59     260/  2/  2 1016.6S
S MID LAKE BUOY  0750   60 56  120/  4/  6 1015.7R   0
KENOSHA   LAKESH 0800   65     180/  5/  7 1015.6F
$$

TC  - TEMPERATURE IN CELSIUS
VSB - VISIBILITY IN STATUTE MILES
WCI - WIND CHILL INDEX
HX  - HEAT INDEX





USA.gov is the U.S. government's official web portal to all federal, state and local government web resources and services.